[[{"header":{"parameterUnit":"m.s-1","parameterCategory":1,"la1":30.2991,"la2":30.254,"lo1":-89.0895,"lo2":-89.0444,"dy":0.0017,"dx":0.0017,"nx":28,"ny":28,"refTime":"2024-07-16T21:00:00:Z","depth":0,"parameterNumber":2,"parameterNumberName":"U-component_of_WINDS"},"data":[0,0,0,0,0,0,0,0,0,0,0,0,0,0,0,0,0,0,0,0,0,0,0,0,0,0,0,0,0,0,0,0,0,0,0,0,0,0,0,0,0,0,0,0,0,0,0,0,0,0,0,0,0,0,0,0,0,0,1.0409,1.041,0,1.0476,1.0477,1.0478,1.0492,1.0491,1.0491,1.049,1.0562,1.0564,1.0567,0,0,0,0,0,0,0,0,0,0,0,0,0,1.0296,1.0298,1.0409,1.041,1.0411,1.0476,1.0477,1.0478,1.0492,1.0491,1.049,1.049,1.0561,1.0564,1.0567,0,0,0,0,0,0,0,0,0,0,0,0,0,1.0352,1.0299,1.0409,1.0425,1.0428,1.0476,1.0477,1.0478,1.0492,1.0491,1.049,1.049,1.056,1.0564,1.0567,1.0605,0,0,1.0578,1.058,0,0,0,0,0,0,0,0,1.0349,1.0357,1.0422,1.0424,1.0427,1.0475,1.0464,1.0521,1.0492,1.0468,1.049,1.0489,1.0534,1.054,1.0554,1.0608,1.0611,1.0579,1.0581,1.0582,1.0584,0,0,0,0,0,0,0,1.0345,1.0354,1.0436,1.0423,1.0426,1.043,1.0438,1.0474,1.0504,1.047,1.0471,1.0478,1.0535,1.055,1.0556,1.0613,1.0579,1.0582,1.0584,1.0585,1.0701,1.0702,0,0,0,0,0,0,1.0338,1.035,1.0434,1.0438,1.0385,1.0433,1.0441,1.046,1.0504,1.051,1.0479,1.0479,1.0545,1.0552,1.0558,1.0605,1.0582,1.0586,1.0588,1.07,1.0701,1.0702,0,0,0,0,0,0,1.0336,1.0345,1.0431,1.0394,1.0406,1.0436,1.0457,1.0462,1.0477,1.0511,1.0517,1.0489,1.0544,1.0553,1.0593,1.0608,1.0587,1.0591,1.0699,1.0701,1.0702,1.0699,0,0,0,0,0,0,1.0332,1.0344,1.0358,1.0395,1.0407,1.0463,1.0458,1.0464,1.0483,1.0483,1.0522,1.0528,1.0544,1.0588,1.0597,1.0612,1.0594,1.0698,1.07,1.0702,1.0698,1.07,1.0702,0,0,0,0,0,1.0328,1.0355,1.0359,1.0369,1.0425,1.0464,1.0472,1.049,1.0484,1.0499,1.052,1.0526,1.0605,1.0592,1.0602,1.0619,1.0697,1.0699,1.0701,1.0697,1.07,1.0702,0,0,0,0,0,0,1.0321,1.036,1.0365,1.0404,1.0431,1.0466,1.0485,1.0492,1.0521,1.0521,1.0543,1.0551,1.059,1.0609,1.0593,1.0658,1.0651,1.0655,1.0644,1.0647,1.0649,1.0644,1.0597,0,0,0,0,0,1.0324,1.0351,1.0385,1.0416,1.0429,1.0455,1.0473,1.0484,1.0513,1.0525,1.0549,1.0578,1.0609,1.0629,1.0659,1.0701,1.0709,1.0718,1.0719,1.0721,1.0724,1.0748,1.0752,1.0709,1.0709,1.0709,0,0,1.033,1.0355,1.0371,1.0416,1.0437,1.0466,1.0464,1.0495,1.0517,1.053,1.0568,1.0587,1.0621,1.0661,1.068,1.0678,1.0738,1.0724,1.0725,1.0727,1.075,1.0754,1.0758,1.0711,1.071,1.071,0,0,1.0357,1.0378,1.0407,1.0429,1.0461,1.0478,1.0485,1.052,1.0533,1.0572,1.0582,1.0609,1.0662,1.0685,1.0704,1.0739,1.0746,1.0748,1.0759,1.0781,1.0785,1.0788,1.08,1.0805,1.0752,1.0752,1.0752,0,1.0361,1.0404,1.0421,1.0451,1.0471,1.0482,1.0512,1.0533,1.0574,1.0587,1.0584,1.065,1.0674,1.072,1.0728,1.0743,1.0752,1.0744,1.0783,1.0786,1.0789,1.0801,1.0806,1.0752,1.0752,1.0752,1.0752,0,1.0408,1.0437,1.0457,1.0495,1.0517,1.0546,1.0569,1.0589,1.0599,1.0616,1.0656,1.0684,1.072,1.0732,1.0743,1.078,1.0778,1.0778,1.0772,1.0793,1.0805,1.081,1.0752,1.0752,1.0752,1.0752,0,0,1.0431,1.0479,1.0486,1.0503,1.054,1.0564,1.0594,1.0629,1.0645,1.0674,1.07,1.0745,1.0745,1.0767,1.0779,1.0799,1.0825,1.0797,1.0799,1.0802,1.0868,1.0868,1.0873,1.083,1.0831,1.0831,1.0866,0,1.0462,1.0516,1.0533,1.0578,1.0606,1.0617,1.0644,1.067,1.0687,1.0714,1.0734,1.0765,1.0763,1.0776,1.0796,1.0818,1.0839,1.0815,1.0855,1.0856,1.0846,1.0879,1.0878,1.0909,1.087,1.0871,1.0872,0,1.0506,1.0533,1.0581,1.0614,1.0627,1.065,1.0683,1.0708,1.0738,1.075,1.0773,1.0784,1.0817,1.0809,1.0855,1.0839,1.0856,1.0869,1.0871,1.0876,1.0865,1.0884,1.092,1.0924,1.0879,1.0879,1.0878,0,1.0518,1.0568,1.0603,1.0617,1.0657,1.0673,1.0691,1.072,1.0739,1.0769,1.0782,1.0815,1.0833,1.0858,1.0878,1.087,1.0923,1.0916,1.0934,1.0933,1.0944,1.0943,1.0983,1.0956,1.0955,1.0955,1.0955,0,1.0551,1.058,1.0609,1.063,1.0663,1.0682,1.0715,1.0733,1.0759,1.0784,1.0797,1.0821,1.0846,1.0874,1.089,1.0926,1.0934,1.0944,1.0948,1.0943,1.0942,1.0955,1.0953,1.0957,1.0956,1.0956,1.0956,0,1.0571,1.0591,1.063,1.0664,1.0673,1.0696,1.0726,1.0747,1.0765,1.0798,1.0806,1.0834,1.0868,1.089,1.0933,1.0944,1.0983,1.0986,1.0972,1.0974,1.099,1.0988,1.1039,1.1047,1.1015,1.1015,1.1015,0,1.059,1.0612,1.0649,1.0666,1.0684,1.0712,1.0732,1.0752,1.0772,1.0808,1.0825,1.0859,1.0887,1.094,1.0965,1.0997,1.1002,1.1018,1.1007,1.1001,1.1002,1.1,1.1003,1.1019,1.102,1.102,1.102,0,1.0623,1.0632,1.0659,1.069,1.0713,1.0739,1.0765,1.0779,1.0804,1.0826,1.0859,1.0881,1.0924,1.0958,1.0993,1.1012,1.102,1.1023,1.1029,1.1024,1.1015,1.102,1.0977,1.1022,1.1022,1.1021,1.1021,1.1021,1.0643,1.0663,1.0692,1.0722,1.0743,1.0767,1.0789,1.0809,1.0837,1.0873,1.0884,1.0918,1.0948,1.0996,1.1015,1.1044,1.1042,1.1051,1.1053,1.1055,1.1054,1.101,1.105,1.105,1.105,1.105,1.105,0,1.0676,1.0695,1.0722,1.0758,1.0782,1.0786,1.0815,1.0835,1.0865,1.0892,1.0919,1.0958,1.099,1.1017,1.1051,1.1068,1.1073,1.1076,1.1075,1.108,1.1054,1.1045,1.1072,1.1072,1.1072,1.1072,1.1072,1.1072,1.0696,1.073,1.0743,1.0788,1.0807,1.0841,1.0857,1.0879,1.09,1.0942,1.0969,1.0986,1.1013,1.1049,1.1079,1.1086,1.1098,1.1101,1.1109,1.1084,1.1082,1.1079,1.1071,1.1103,1.1103,1.1132,1.1132,1.1133]},{"header":{"parameterUnit":"m.s-1","parameterCategory":1,"la1":30.2991,"la2":30.254,"lo1":-89.0895,"lo2":-89.0444,"dy":0.0017,"dx":0.0017,"nx":28,"ny":28,"refTime":"2024-07-16T21:00:00:Z","depth":0,"parameterNumber":3,"parameterNumberName":"V-component_of_WINDS"},"data":[0,0,0,0,0,0,0,0,0,0,0,0,0,0,0,0,0,0,0,0,0,0,0,0,0,0,0,0,0,0,0,0,0,0,0,0,0,0,0,0,0,0,0,0,0,0,0,0,0,0,0,0,0,0,0,0,0,0,2.2527,2.2527,0,2.2515,2.2515,2.2515,2.252,2.252,2.252,2.2521,2.2506,2.2506,2.2505,0,0,0,0,0,0,0,0,0,0,0,0,0,2.2553,2.2552,2.2527,2.2527,2.2527,2.2515,2.2515,2.2515,2.252,2.252,2.2521,2.2521,2.2506,2.2506,2.2505,0,0,0,0,0,0,0,0,0,0,0,0,0,2.2541,2.2552,2.2527,2.2528,2.2528,2.2515,2.2515,2.2515,2.252,2.252,2.2521,2.2521,2.2507,2.2506,2.2505,2.2489,0,0,2.2502,2.2501,0,0,0,0,0,0,0,0,2.2542,2.254,2.2528,2.2528,2.2528,2.2519,2.2518,2.2506,2.252,2.2523,2.2521,2.2521,2.251,2.2509,2.2505,2.2489,2.2488,2.2502,2.2501,2.2501,2.25,0,0,0,0,0,0,0,2.2543,2.2541,2.2522,2.2528,2.2528,2.2528,2.2527,2.2516,2.2514,2.2523,2.2523,2.2522,2.251,2.2506,2.2505,2.2488,2.2502,2.2501,2.25,2.25,2.2455,2.2455,0,0,0,0,0,0,2.2544,2.2541,2.2523,2.2522,2.2536,2.2527,2.2526,2.2522,2.2514,2.2514,2.2521,2.2522,2.2508,2.2506,2.2505,2.2485,2.2501,2.25,2.2499,2.2456,2.2455,2.2455,0,0,0,0,0,0,2.2544,2.2542,2.2523,2.2532,2.2529,2.2527,2.2521,2.2521,2.2518,2.2513,2.2513,2.2518,2.2508,2.2506,2.2493,2.2484,2.2499,2.2498,2.2457,2.2456,2.2455,2.2445,0,0,0,0,0,0,2.2545,2.2542,2.2537,2.2532,2.2529,2.2513,2.2521,2.2521,2.2516,2.2517,2.251,2.2509,2.2508,2.2494,2.2492,2.2483,2.2497,2.2457,2.2456,2.2455,2.2446,2.2444,2.2442,0,0,0,0,0,2.2546,2.2535,2.2537,2.2535,2.2523,2.2512,2.251,2.251,2.2515,2.251,2.2506,2.2509,2.2486,2.2493,2.249,2.2481,2.2458,2.2457,2.2455,2.2447,2.2445,2.2443,0,0,0,0,0,0,2.2539,2.2534,2.2536,2.2524,2.2518,2.2513,2.2506,2.2508,2.25,2.2501,2.2501,2.2499,2.2485,2.2482,2.249,2.2465,2.2472,2.2471,2.2467,2.2465,2.2463,2.2463,2.2497,0,0,0,0,0,2.2537,2.2529,2.2525,2.2514,2.2511,2.2509,2.2504,2.2505,2.2499,2.2496,2.2492,2.2486,2.2476,2.2471,2.2462,2.2446,2.2443,2.2438,2.2436,2.2435,2.2433,2.2422,2.2419,2.245,2.245,2.245,0,0,2.2531,2.2527,2.2522,2.2513,2.2508,2.2499,2.2507,2.2498,2.2491,2.2495,2.2482,2.2478,2.2471,2.2455,2.2448,2.2452,2.2423,2.2433,2.2432,2.2431,2.242,2.2417,2.2414,2.245,2.245,2.245,0,0,2.2515,2.2512,2.2502,2.2497,2.2491,2.2489,2.2486,2.2481,2.2478,2.2465,2.2468,2.2459,2.2444,2.2438,2.2433,2.2412,2.2414,2.241,2.2399,2.2388,2.2386,2.2383,2.2374,2.2371,2.2408,2.2408,2.2408,0,2.2508,2.2495,2.2496,2.2486,2.2481,2.2484,2.2473,2.2468,2.2459,2.2455,2.246,2.2439,2.2435,2.2417,2.2412,2.2408,2.2404,2.241,2.2386,2.2384,2.2382,2.2373,2.237,2.2407,2.2407,2.2407,2.2408,0,2.2486,2.2477,2.247,2.2461,2.2455,2.2444,2.2442,2.2436,2.2436,2.2433,2.2419,2.2413,2.2403,2.2399,2.2399,2.238,2.2382,2.2387,2.2394,2.2378,2.237,2.2367,2.2406,2.2407,2.2407,2.2407,0,0,2.2466,2.2457,2.2454,2.2449,2.2442,2.2434,2.2423,2.2413,2.2407,2.24,2.2389,2.2376,2.2379,2.2373,2.2373,2.2363,2.2345,2.2368,2.2368,2.2363,2.2321,2.2317,2.2314,2.2347,2.2346,2.2345,2.2321,0,2.2449,2.243,2.243,2.2412,2.2402,2.2404,2.2394,2.2388,2.2385,2.2375,2.2371,2.2361,2.2367,2.2363,2.2354,2.2349,2.2337,2.2351,2.2335,2.2334,2.2335,2.231,2.2306,2.2284,2.2318,2.2318,2.2318,0,2.2426,2.2418,2.24,2.2392,2.2388,2.2379,2.2368,2.236,2.2352,2.235,2.2343,2.2343,2.233,2.2338,2.2319,2.2328,2.2322,2.2318,2.2317,2.2315,2.2324,2.2305,2.2277,2.2273,2.2313,2.2313,2.2314,0,2.2412,2.2397,2.2383,2.2379,2.237,2.2363,2.2359,2.2351,2.2344,2.2335,2.233,2.2319,2.2313,2.2304,2.23,2.2307,2.228,2.2289,2.2276,2.2276,2.227,2.227,2.2239,2.2268,2.2268,2.2268,2.2268,0,2.2392,2.2379,2.2376,2.2367,2.2353,2.2352,2.2338,2.2334,2.2326,2.2316,2.2317,2.2307,2.2304,2.2293,2.229,2.2273,2.227,2.2267,2.2266,2.2266,2.2266,2.2261,2.2262,2.2267,2.2267,2.2268,2.2268,0,2.2373,2.237,2.2355,2.2347,2.2345,2.2335,2.2327,2.2318,2.2315,2.2301,2.2298,2.2292,2.2279,2.2275,2.2259,2.2257,2.2236,2.2237,2.2239,2.2238,2.2225,2.2226,2.2188,2.2182,2.2217,2.2216,2.2216,0,2.236,2.235,2.2341,2.2335,2.233,2.2319,2.2312,2.231,2.2303,2.2291,2.2283,2.227,2.2259,2.2237,2.2231,2.2218,2.2218,2.2205,2.2216,2.2215,2.2215,2.2215,2.2213,2.2203,2.2203,2.2202,2.2202,0,2.2336,2.2335,2.2325,2.2314,2.2306,2.2297,2.2289,2.2283,2.2279,2.227,2.2257,2.2248,2.2231,2.2217,2.2204,2.2198,2.2198,2.2199,2.2195,2.2194,2.2195,2.2192,2.2232,2.22,2.22,2.22,2.22,2.22,2.2318,2.231,2.2301,2.229,2.2283,2.2275,2.2265,2.2261,2.225,2.2236,2.2235,2.222,2.2209,2.2191,2.2184,2.2171,2.2174,2.2169,2.2168,2.2166,2.2164,2.2198,2.2169,2.2169,2.2169,2.2169,2.2169,0,2.2293,2.2288,2.2278,2.2266,2.2256,2.2258,2.2249,2.224,2.2227,2.2217,2.2207,2.219,2.2176,2.2167,2.2153,2.2144,2.2143,2.214,2.214,2.2138,2.2163,2.2167,2.214,2.214,2.214,2.214,2.214,2.214,2.2279,2.2264,2.2261,2.2241,2.2236,2.2221,2.2215,2.2207,2.2199,2.218,2.2169,2.2164,2.2154,2.2139,2.2125,2.2123,2.2116,2.2112,2.211,2.2133,2.2136,2.2139,2.2143,2.2111,2.2111,2.2086,2.2086,2.2085]}]]